Regional Weather Roundup
Issued by NWS

Home | Current Version | Previous Version | Graphics & Text | Print | Product List | Glossary On
Versions: 1 2 3 4 5 6 7 8 9 10 11 12 13 14 15 16 17 18 19 20 21 22 23 24 25 26 27 28 29 30 31 32 33 34 35 36 37 38 39 40 41 42 43 44 45 46 47 48 49 50
000
ASUS43 KLOT 201510
RWRIL

ILLINOIS REGIONAL WEATHER ROUNDUP
NATIONAL WEATHER SERVICE CHICAGO/ROMEOVILLE IL
900 AM CST THU NOV 20 2014

NOTE: "FAIR" INDICATES FEW OR NO CLOUDS BELOW 12,000 FEET WITH NO
SIGNIFICANT WEATHER AND/OR OBSTRUCTIONS TO VISIBILITY.

* THESE STATIONS ARE NOT UNDER NWS QUALITY CONTROL. THEY ALSO MAY NOT
  REPORT WEATHER SUCH AS PRECIPITATION OR FOG.

ILZ001-002-007-009-015-016-024-201600-
NORTHWEST ILLINOIS

CITY           SKY/WX    TMP DP  RH WIND       PRES   REMARKS
MOLINE         SUNNY     22  12  65 W14       30.15R WCI   9
STERLING*      SUNNY     21  12  68 NW16G22   30.12R WCI   7
SAVANNA*       SUNNY     20  11  68 W9        30.13R WCI  10
$$

ILZ003-004-008-010-011-017-018-201600-
NORTH CENTRAL ILLINOIS

CITY           SKY/WX    TMP DP  RH WIND       PRES   REMARKS
ROCKFORD       MOSUNNY   20  11  68 W15       30.09R WCI   6
FREEPORT*      SUNNY     18  11  74 W15G22    30.09R WCI   4
ROCHELLE*      SUNNY     19  12  74 W16       30.09R WCI   4
DE KALB*       SUNNY     18  12  76 W12G22    30.07R WCI   6
PERU*          SUNNY     24  14  66 W20G25    30.13R WCI   9
$$

ILZ005-006-012>014-019>023-201600-
NORTHEAST ILLINOIS

CITY           SKY/WX    TMP DP  RH WIND       PRES   REMARKS
CHICAGO-OHARE  MOSUNNY   20  10  65 W15       30.05R WCI   6
CHICAGO-MIDWAY MOSUNNY   23  12  62 W14       30.07R WCI  11
AURORA         SUNNY     21  12  68 W20       30.08S WCI   6
LANSING*       SUNNY     22  13  67 W15G22    30.08R WCI   9
JOLIET*        SUNNY     21  12  69 W12G18    30.10R WCI   9
WAUKEGAN       SUNNY     20   9  62 W12G22    30.01R WCI   8
DUPAGE AIRPORT SUNNY     20  12  71 W14       30.06R WCI   7
KANKAKEE*      SUNNY     23  14  68 W21       30.12S WCI   8
WHEELING       SUNNY     21   9  59 W13G24    30.06R WCI   9
MORRIS*        SUNNY     22  15  74 W17       30.11R WCI   8
ROMEOVILLE*    SUNNY     22  13  70 W17       30.08S WCI   7
NORTHERLY ISL    N/A     22  11  62 W12         N/A  WCI  11
$$

LMZ740>746-201600-
SOUTHERN LAKE MICHIGAN

STATION/POSITION SKY/WX   TEMP    WIND        PRES    VSBY  WAVE
                          AIR SEA DIR/SP/G                  HT/PER
                          (F)     (DEG/KT/KT) (MB)    (MI)  (FT/S)
SOUTHERN BUOY              24 43  280/ 23/ 29 1015.9R         7/ 6
WAUKEGAN HARBOR            20     270/ 17/ 22   N/A
HARRISON CRIB              20     270/ 21/ 26   N/A
BURNHAM HARBOR             23     290/ 12/ 15   N/A
CALUMET HARBOR             21     240/ 11/ 16 1016.8R
MICHIGAN CITY              23     230/ 26/ 31   N/A
$$

ILZ025>027-034>036-040-047-049-050-058-095>099-201600-
WEST-CENTRAL ILLINOIS

CITY           SKY/WX    TMP DP  RH WIND       PRES   REMARKS
QUINCY         CLOUDY    26  14  60 W9        30.22R WCI  17
GALESBURG*     SUNNY     25  16  68 W15       30.16R WCI  12
MACOMB*        SUNNY     26  16  65 W13       30.21R WCI  15
JACKSONVILLE*  CLOUDY    27  16  62 W8        30.23R WCI  19
PITTSFIELD*    CLOUDY    26  18  73 SW7       30.24R WCI  18
$$

ILZ028>032-037-038-041>044-048-051>054-059>061-201600-
CENTRAL ILLINOIS

CITY           SKY/WX    TMP DP  RH WIND       PRES   REMARKS
PONTIAC        SUNNY     25  15  65 W21       30.14S WCI  11
BLOOMINGTON    SUNNY     23  13  65 W20G25    30.16R WCI   8
DECATUR        FAIR      26  13  57 W12       30.20R WCI  16
PEORIA         SUNNY     26  13  57 W12       30.17S WCI  16
LACON*         SUNNY     23  12  63 W13       30.15R WCI  11
LINCOLN*       SUNNY     27  15  60 W9G16     30.21S WCI  17
SPRINGFIELD    MOSUNNY   26  14  60 W12       30.22R WCI  16
TAYLORVILLE    SUNNY     27  16  63 W13       30.23R WCI  16
$$

ILZ033-039-045-046-055>057-062-063-201600-
EAST-CENTRAL ILLINOIS

CITY           SKY/WX    TMP DP  RH WIND       PRES   REMARKS
CHAMPAIGN      SUNNY     24  14  65 W18       30.18R WCI  10
DANVILLE*      SUNNY     23  14  68 W16       30.13S WCI  10
RANTOUL*       SUNNY     26  15  63 W17       30.16R WCI  13
MATTOON        SUNNY     25  13  60 W13       30.21R WCI  14
PARIS*         FAIR      25  17  69 W17       30.21R WCI  12
$$

ILZ079-100>102-201600-
SOUTHWEST ILLINOIS

CITY           SKY/WX    TMP DP  RH WIND       PRES   REMARKS
ALTON          PTSUNNY   27  18  69 W10       30.27R WCI  17
BELLEVILLE     SUNNY     28  19  68 NW9       30.28R WCI  20
CAHOKIA*       SUNNY     28  18  66 W7        30.28R WCI  21
SPARTA*        SUNNY     27  18  68 W6        30.29R WCI  20
$$

ILZ064>066-069>071-074>076-080>082-084>086-088>090-092>094-201600-
SOUTH-CENTRAL ILLINOIS

CITY           SKY/WX    TMP DP  RH WIND       PRES   REMARKS
CARBONDALE     SUNNY     28  17  63 NW8       30.30R WCI  20
CAIRO*         SUNNY     33  22  64 NW7       30.31R WCI  26
EFFINGHAM*     SUNNY     28  14  56 W14       30.25  WCI  17
MARION         SUNNY     28  19  69 NW12      30.30R WCI  18
MT. VERNON     SUNNY     27  18  69 W6        30.29R WCI  20
CENTRALIA*     SUNNY     26  18  71 W8        30.28R WCI  18
SALEM*         SUNNY     28  22  78 W8        30.26R WCI  20
METROPOLIS*    SUNNY     31  22  67 NW7       30.29R WCI  24
$$

ILZ067-068-072-073-078-083-087-091-201600-
SOUTHEAST ILLINOIS

CITY           SKY/WX    TMP DP  RH WIND       PRES   REMARKS
LAWRENCEVILLE  SUNNY     27  17  66 W10       30.26R WCI  17
FLORA*         SUNNY     27  17  64 W9        30.27R WCI  18
FAIRFIELD*     SUNNY     27  18  70 W6        30.27R WCI  20
HARRISBURG*    SUNNY     28  20  72 W6        30.30R WCI  21
ROBINSON*      SUNNY     27  18  69 W16       30.26R WCI  15
CARMI*         MOSUNNY   30  22  71 NW9       30.28R WCI  22
$$

ABBREVIATIONS USED IN REMARKS
   TC - TEMPERATURE IN CELSIUS
  WCI - WIND CHILL INDEX
   HX - HEAT INDEX
  VSB - VISIBILITY
$$




USA.gov is the U.S. government's official web portal to all federal, state and local government web resources and services.